| time (UTC) | temp C | wind direction | speed KPH | gust KPH | rain 1hr cm | rain 24hr cm | rain mn cm | humidity % | barometer mb |
| 20260509124545 | 10 | 269 | 9.7 | 24.1 | 0.00 | 0.00 | 0.00 | 79 | 997.9 |
| 20260509123043 | 10 | 246 | 9.7 | 19.3 | 0.00 | 0.00 | 0.00 | 79 | 997.9 |
| 20260509121545 | 10 | 270 | 11.3 | 17.7 | 0.00 | 0.00 | 0.00 | 81 | 997.6 |
| 20260509120048 | 10 | 209 | 8.0 | 16.1 | 0.00 | 0.00 | 0.00 | 79 | 997.9 |
| 20260509114538 | 10 | 261 | 11.3 | 17.7 | 0.00 | 0.00 | 0.00 | 80 | 997.7 |
| 20260509113036 | 10 | 250 | 3.2 | 11.3 | 0.00 | 0.00 | 0.00 | 81 | 997.9 |
| 20260509111533 | 10 | 236 | 1.6 | 8.0 | 0.00 | 0.00 | 0.00 | 81 | 997.5 |
| 20260509110029 | 10 | 246 | 3.2 | 8.0 | 0.00 | 0.00 | 0.00 | 82 | 997.8 |
| 20260509104530 | 9 | 111 | 3.2 | 9.7 | 0.00 | 0.00 | 0.00 | 80 | 997.9 |
| 20260509103026 | 9 | 103 | 3.2 | 6.4 | 0.00 | 0.00 | 0.00 | 78 | 998.0 |
| 20260509101526 | 9 | 95 | 1.6 | 8.0 | 0.00 | 0.00 | 0.00 | 78 | 998.3 |
| 20260509100022 | 9 | 72 | 1.6 | 6.4 | 0.00 | 0.00 | 0.00 | 76 | 998.3 |
| 20260509094526 | 9 | 92 | 1.6 | 4.8 | 0.00 | 0.00 | 0.00 | 74 | 998.4 |
| 20260509093019 | 9 | 110 | 1.6 | 6.4 | 0.00 | 0.00 | 0.00 | 73 | 998.7 |
| 20260509091518 | 10 | 135 | 1.6 | 4.8 | 0.00 | 0.00 | 0.00 | 72 | 999.0 |
| 20260509090012 | 10 | 97 | 1.6 | 4.8 | 0.00 | 0.00 | 0.00 | 71 | 999.1 |
| 20260509084512 | 10 | 95 | 1.6 | 6.4 | 0.00 | 0.00 | 0.00 | 71 | 999.4 |
| 20260509083009 | 10 | 182 | 1.6 | 9.7 | 0.00 | 0.00 | 0.00 | 71 | 999.5 |
| 20260509081600 | 10 | 84 | 1.6 | 6.4 | 0.00 | 0.00 | 0.00 | 69 | 999.7 |
| 20260509080107 | 11 | 184 | 1.6 | 4.8 | 0.00 | 0.00 | 0.00 | 67 | 999.8 |
| 20260509074556 | 11 | 105 | 1.6 | 6.4 | 0.00 | 0.00 | 0.00 | 65 | 1000.1 |
| 20260509073122 | 11 | 76 | 1.6 | 6.4 | 0.00 | 0.00 | 0.00 | 64 | 1000.5 |
| 20260509071550 | 11 | 40 | 1.6 | 14.5 | 0.00 | 0.00 | 0.00 | 64 | 1000.7 |
| 20260509070051 | 12 | 214 | 1.6 | 6.4 | 0.00 | 0.00 | 0.00 | 53 | 1001.3 |
| 20260509064543 | 11 | 210 | 1.6 | 8.0 | 0.00 | 0.00 | 0.00 | 52 | 1001.1 |
| 20260509063040 | 11 | 231 | 3.2 | 12.9 | 0.00 | 0.00 | 0.00 | 49 | 1001.2 |
| 20260509061540 | 11 | 274 | 3.2 | 9.7 | 0.00 | 0.00 | 0.00 | 48 | 1001.5 |
| 20260509060047 | 11 | 292 | 1.6 | 9.7 | 0.00 | 0.00 | 0.00 | 42 | 1001.8 |
| 20260509054537 | 10 | 186 | 1.6 | 9.7 | 0.00 | 0.00 | 0.00 | 42 | 1001.6 |
| 20260509053036 | 10 | 329 | 1.6 | 4.8 | 0.00 | 0.00 | 0.00 | 44 | 1002.0 |
| 20260509051534 | 10 | 360 | 1.6 | 4.8 | 0.00 | 0.00 | 0.00 | 44 | 1002.3 |
| 20260509050027 | 10 | 175 | 1.6 | 4.8 | 0.00 | 0.00 | 0.00 | 43 | 1002.3 |
| 20260509044533 | 10 | 61 | 1.6 | 4.8 | 0.00 | 0.00 | 0.00 | 44 | 1002.6 |
| 20260509043030 | 10 | 53 | 3.2 | 6.4 | 0.00 | 0.00 | 0.00 | 44 | 1002.5 |
| 20260509041519 | 11 | 250 | 1.6 | 4.8 | 0.00 | 0.00 | 0.00 | 43 | 1003.2 |
| 20260509040015 | 11 | 251 | 1.6 | 6.4 | 0.00 | 0.00 | 0.00 | 39 | 1003.5 |
| 20260509034515 | 11 | 251 | 1.6 | 4.8 | 0.00 | 0.00 | 0.00 | 39 | 1003.5 |
| 20260509033014 | 11 | 248 | 0.0 | 8.0 | 0.00 | 0.00 | 0.00 | 42 | 1003.5 |
| 20260509031516 | 11 | 225 | 1.6 | 4.8 | 0.00 | 0.00 | 0.00 | 41 | 1003.7 |
| 20260509030011 | 11 | 223 | 1.6 | 8.0 | 0.00 | 0.00 | 0.00 | 44 | 1003.8 |
| 20260509024511 | 11 | 248 | 1.6 | 4.8 | 0.00 | 0.00 | 0.00 | 41 | 1003.9 |
| 20260509023010 | 11 | 341 | 0.0 | 3.2 | 0.00 | 0.00 | 0.00 | 42 | 1003.9 |
| 20260509021510 | 11 | 195 | 1.6 | 6.4 | 0.00 | 0.00 | 0.00 | 43 | 1003.8 |
| 20260509020009 | 11 | 310 | 1.6 | 4.8 | 0.00 | 0.00 | 0.00 | 43 | 1003.9 |
| 20260509014508 | 11 | 310 | 1.6 | 3.2 | 0.00 | 0.00 | 0.00 | 44 | 1003.9 |
| 20260509013008 | 11 | 309 | 0.0 | 4.8 | 0.00 | 0.00 | 0.00 | 43 | 1003.9 |
| 20260509011507 | 12 | 223 | 1.6 | 3.2 | 0.00 | 0.00 | 0.00 | 41 | 1003.9 |
| 20260509010106 | 12 | 198 | 0.0 | 4.8 | 0.00 | 0.00 | 0.00 | 40 | 1004.0 |
| 20260509004506 | 13 | 273 | 0.0 | 4.8 | 0.00 | 0.00 | 0.00 | 39 | 1003.9 |
| 20260509003010 | 13 | 257 | 3.2 | 11.3 | 0.00 | 0.00 | 0.00 | 36 | 1004.0 |
| 20260509001502 | 14 | 248 | 3.2 | 12.9 | 0.00 | 0.00 | 0.00 | 38 | 1004.1 |
| 20260509000059 | 12 | 226 | 3.2 | 9.7 | 0.00 | 0.00 | 0.00 | 59 | 1004.2 |
| 20260508234556 | 12 | 273 | 4.8 | 11.3 | 0.00 | 0.00 | 0.00 | 63 | 1004.3 |
| 20260508233054 | 12 | 240 | 4.8 | 12.9 | 0.00 | 0.00 | 0.00 | 61 | 1004.4 |
| 20260508231554 | 12 | 273 | 6.4 | 14.5 | 0.00 | 0.00 | 0.00 | 59 | 1004.5 |
| 20260508230053 | 12 | 275 | 6.4 | 14.5 | 0.00 | 0.00 | 0.00 | 61 | 1004.5 |
| 20260508224552 | 12 | 282 | 4.8 | 16.1 | 0.00 | 0.00 | 0.00 | 59 | 1004.7 |
| 20260508223054 | 12 | 271 | 8.0 | 12.9 | 0.00 | 0.00 | 0.00 | 60 | 1004.8 |
| 20260508221548 | 12 | 273 | 8.0 | 14.5 | 0.00 | 0.00 | 0.00 | 61 | 1004.8 |
| 20260508220046 | 12 | 259 | 8.0 | 12.9 | 0.00 | 0.00 | 0.00 | 59 | 1005.0 |
| 20260508214553 | 11 | 254 | 6.4 | 14.5 | 0.00 | 0.00 | 0.00 | 62 | 1005.0 |
| 20260508213044 | 11 | 255 | 6.4 | 14.5 | 0.00 | 0.00 | 0.00 | 60 | 1005.1 |
| 20260508211543 | 12 | 280 | 9.7 | 14.5 | 0.00 | 0.00 | 0.00 | 59 | 1005.1 |
| 20260508210040 | 12 | 257 | 9.7 | 19.3 | 0.00 | 0.00 | 0.00 | 57 | 1005.3 |
| 20260508204542 | 12 | 261 | 9.7 | 14.5 | 0.00 | 0.00 | 0.00 | 58 | 1005.5 |
| 20260508203035 | 12 | 279 | 8.0 | 17.7 | 0.00 | 0.00 | 0.00 | 59 | 1005.7 |
| 20260508201537 | 12 | 278 | 9.7 | 16.1 | 0.00 | 0.00 | 0.00 | 58 | 1005.8 |
| 20260508200033 | 12 | 258 | 9.7 | 19.3 | 0.00 | 0.00 | 0.00 | 59 | 1006.0 |
| 20260508194528 | 12 | 265 | 9.7 | 17.7 | 0.00 | 0.00 | 0.00 | 60 | 1006.3 |
| 20260508193026 | 12 | 281 | 11.3 | 16.1 | 0.00 | 0.00 | 0.00 | 59 | 1006.5 |
| 20260508191527 | 12 | 274 | 11.3 | 17.7 | 0.00 | 0.00 | 0.00 | 60 | 1006.6 |
| 20260508190025 | 11 | 269 | 11.3 | 16.1 | 0.00 | 0.00 | 0.00 | 63 | 1006.8 |
| 20260508184519 | 11 | 280 | 11.3 | 16.1 | 0.00 | 0.00 | 0.00 | 64 | 1007.0 |
| 20260508183016 | 11 | 256 | 11.3 | 19.3 | 0.00 | 0.00 | 0.00 | 63 | 1007.1 |
| 20260508181506 | 11 | 224 | 11.3 | 22.5 | 0.00 | 0.00 | 0.00 | 61 | 1007.5 |
| 20260508180005 | 11 | 261 | 11.3 | 17.7 | 0.00 | 0.00 | 0.00 | 67 | 1007.8 |
| 20260508174603 | 10 | 238 | 11.3 | 17.7 | 0.00 | 0.00 | 0.00 | 69 | 1008.1 |
| 20260508173054 | 10 | 275 | 11.3 | 19.3 | 0.00 | 0.00 | 0.00 | 72 | 1008.3 |
| 20260508171551 | 10 | 247 | 11.3 | 14.5 | 0.00 | 0.00 | 0.00 | 75 | 1008.4 |
| 20260508170046 | 9 | 278 | 11.3 | 16.1 | 0.00 | 0.00 | 0.00 | 76 | 1008.6 |
| 20260508164545 | 9 | 260 | 11.3 | 19.3 | 0.00 | 0.00 | 0.00 | 76 | 1008.7 |
| 20260508163047 | 9 | 246 | 9.7 | 12.9 | 0.00 | 0.00 | 0.00 | 78 | 1008.9 |
| 20260508161641 | 8 | 265 | 11.3 | 16.1 | 0.00 | 0.00 | 0.00 | 78 | 1008.8 |
| 20260508160058 | 8 | 248 | 9.7 | 12.9 | 0.00 | 0.00 | 0.00 | 79 | 1008.9 |
| 20260508154535 | 8 | 267 | 9.7 | 16.1 | 0.00 | 0.00 | 0.00 | 81 | 1009.1 |
| 20260508153042 | 7 | 257 | 9.7 | 12.9 | 0.00 | 0.00 | 0.00 | 81 | 1009.1 |
| 20260508151533 | 7 | 263 | 9.7 | 12.9 | 0.00 | 0.00 | 0.00 | 82 | 1009.1 |
| 20260508150035 | 7 | 271 | 11.3 | 14.5 | 0.00 | 0.00 | 0.00 | 82 | 1009.1 |
| 20260508144528 | 7 | 274 | 9.7 | 19.3 | 0.00 | 0.00 | 0.00 | 81 | 1009.2 |
| 20260508143031 | 7 | 269 | 8.0 | 12.9 | 0.00 | 0.00 | 0.00 | 81 | 1009.3 |
| 20260508141536 | 7 | 253 | 8.0 | 16.1 | 0.00 | 0.00 | 0.00 | 81 | 1009.2 |
| 20260508140023 | 7 | 275 | 9.7 | 17.7 | 0.00 | 0.00 | 0.00 | 81 | 1009.2 |
| 20260508134529 | 7 | 277 | 8.0 | 11.3 | 0.00 | 0.00 | 0.00 | 81 | 1009.2 |
| 20260508133019 | 7 | 277 | 6.4 | 12.9 | 0.00 | 0.00 | 0.00 | 80 | 1009.3 |
| 20260508131519 | 7 | 262 | 6.4 | 12.9 | 0.00 | 0.00 | 0.00 | 76 | 1009.4 |
| 20260508130016 | 6 | 237 | 3.2 | 9.7 | 0.00 | 0.00 | 0.00 | 71 | 1009.4 |